Eureka, Nunavut

5:55 PM CDT on March 26, 2017 (GMT -0500)
Eureka

Weather History for CWEU - November, 2011

Change the Weather History Date:

Friday, November 25, 2011

  Actual Average Record
Temperature  
Mean Temperature -10 °F -  
Max Temperature -4 °F -23 °F 3 °F (2010)
Min Temperature -17 °F -36 °F -41 °F (2012)
Degree Days  
Heating Degree Days 76    
Moisture  
Dew Point -16 °F    
Average Humidity 66    
Maximum Humidity 71    
Minimum Humidity 53    
Precipitation  
Precipitation 0.00 in 0.00 in - ()
Sea Level Pressure  
Sea Level Pressure 29.72 in    
Wind  
Wind Speed 8 mph ()    
Max Wind Speed 15 mph    
Max Gust Speed -    
Visibility 12.7 miles    
Events Snow    
Averages and records for this station are not official NWS values.
T = Trace of Precipitation, MM = Missing Value Source: Averaged Metar Reports

Daily Weather History Graph

Daily Weather History Graph

Search for Another Location

Airport or City:

Trip Planner

Search our weather history database for the weather conditions in past years. The results will help you decide how hot, cold, wet, or windy it might be!

Date:

Astronomy

Dec. 31, 1969 Rise Set
Actual Time Sun does not rise Sun does not rise
Civil Twilight Sun does not rise Sun does not rise
Nautical Twilight 9:31 AM CST 1:28 PM CST
Astronomical Twilight 6:26 AM CST 4:32 PM CST
Moon No Moon Rise No Moon Set
Length of Visible Light 0h 00m
Length of Day
0h 00m
New Moon, 0% of the Moon is Illuminated
Nov 25
New Moon
Dec 2
First Quarter
Dec 10
Full
Dec 17
Last Quarter
Dec 24
New

Hourly Weather History & Observations

Time (CST) Temp. Windchill Dew Point Humidity Pressure Visibility Wind Dir Wind Speed Gust Speed Precip Events Conditions
12:00 AM -14 °F - -21 °F 54% 29.68 in 7 mi SE 6.9 mph - - Snow Light Snow
12:00 AM -13.0 °F -27.0 °F -22.0 °F 64% 29.68 in 7.0 mi SE 5.8 mph - N/A Snow Light Snow
1:00 AM -13.0 °F -25.1 °F -20.2 °F 70% 29.68 in 10.0 mi SE 4.6 mph - N/A Snow Light Snow
2:00 AM -11.2 °F -29.0 °F -18.4 °F 70% 29.69 in 10.0 mi SE 9.2 mph - N/A Snow Light Snow
3:00 AM -7.6 °F -24.6 °F -14.8 °F 71% 29.69 in 10.0 mi SE 9.2 mph - N/A Snow Light Snow
4:00 AM -7.6 °F -24.6 °F -14.8 °F 71% 29.70 in 10.0 mi SE 9.2 mph - N/A Snow Light Snow
5:00 AM -5.8 °F -22.4 °F -14.8 °F 65% 29.70 in 10.0 mi SE 9.2 mph - N/A Snow Light Snow
6:00 AM -6 °F - -14 °F 54% 29.70 in 10 mi SE 6.9 mph - - Snow Light Snow
6:00 AM -5.8 °F -19.9 °F -14.8 °F 65% 29.70 in 10.0 mi SE 6.9 mph - N/A Snow Light Snow
7:00 AM -5.8 °F -23.4 °F -13.0 °F 71% 29.70 in 10.0 mi SE 10.4 mph - N/A Snow Light Snow
8:00 AM -5.8 °F -23.4 °F -13.0 °F 71% 29.71 in 15.0 mi SE 10.4 mph - N/A Snow Light Snow
9:00 AM -5.8 °F -23.4 °F -13.0 °F 71% 29.71 in 15.0 mi SE 10.4 mph - N/A Snow Light Snow
10:00 AM -5.8 °F -24.4 °F -13.0 °F 71% 29.72 in 15.0 mi SE 11.5 mph - N/A Snow Light Snow
11:00 AM -7.6 °F -26.6 °F -14.8 °F 71% 29.72 in 15.0 mi SE 11.5 mph - N/A Snow Light Snow
11:45 AM - - - N/A% - 15.0 mi SE 13.8 mph - N/A   Partly Cloudy
12:00 PM -9 °F - -17 °F 53% 29.73 in 15 mi SE 13.8 mph - - Snow Light Snow
1:00 PM -9.4 °F -28.9 °F -16.6 °F 71% 29.74 in 15.0 mi SE 11.5 mph - N/A   Mostly Cloudy
2:00 PM -9.4 °F -30.6 °F -16.6 °F 71% 29.75 in 15.0 mi SE 13.8 mph - N/A   Mostly Cloudy
2:35 PM - - - N/A% - 15.0 mi SE 15.0 mph - N/A   Unknown
4:00 PM -5.8 °F -24.4 °F -14.8 °F 65% 29.76 in 15.0 mi SE 11.5 mph - N/A Snow Light Snow
6:00 PM -6 °F - -14 °F 55% 29.78 in 15 mi SE 13.8 mph - - Snow Light Snow
7:00 PM -4.0 °F -22.1 °F -13.0 °F 65% 29.78 in 15.0 mi SE 11.5 mph - N/A Snow Light Snow
8:00 PM -4.0 °F -24.5 °F -13.0 °F 65% 29.78 in 15.0 mi SE 15.0 mph - N/A Snow Light Snow
9:00 PM -5.8 °F -24.4 °F -14.8 °F 65% 29.81 in 15.0 mi SE 11.5 mph - N/A Snow Light Snow